IZ1UQG-2 Weather Reports


Display with metric or nautical units.
time (UTC)temp
F
wind
direction
speed
MPH
gust
MPH
rain 1hr
in
rain 24hr
in
rain mn
in
humidity
%
barometer
mb
20260505022603 59 159 1.0 3.0 0.00 0.00 0.00 68 1011.2
20260505022404 59 153 1.0 3.0 0.00 0.00 0.00 69 1011.2
20260505022304 59 152 1.0 3.0 0.00 0.00 0.00 68 1011.2
20260505022204 59 150 1.0 3.0 0.00 0.00 0.00 68 1011.2
20260505022104 59 150 1.0 3.0 0.00 0.00 0.00 67 1011.2
20260505021903 59 149 1.0 3.0 0.00 0.00 0.00 67 1011.2
20260505021808 59 147 0.0 3.0 0.00 0.00 0.00 67 1011.2
20260505021704 59 136 0.0 3.0 0.00 0.00 0.00 67 1011.3
20260505021604 59 70 0.0 1.0 0.00 0.00 0.00 67 1011.3
20260505021504 59 9 0.0 1.0 0.00 0.00 0.00 67 1011.3
20260505021411 59 3 0.0 1.0 0.00 0.00 0.00 67 1011.2
20260505021304 59 2 0.0 1.0 0.00 0.00 0.00 67 1011.2
20260505021203 59 2 0.0 1.0 0.00 0.00 0.00 67 1011.2
20260505021108 59 3 0.0 1.0 0.00 0.00 0.00 66 1011.2
20260505020803 59 352 1.0 3.0 0.00 0.00 0.00 65 1011.2
20260505020704 59 349 1.0 3.0 0.00 0.00 0.00 65 1011.2
20260505020603 59 354 1.0 3.0 0.00 0.00 0.00 65 1011.3
20260505020504 59 346 1.0 4.0 0.00 0.00 0.00 65 1011.3
20260505020203 59 325 2.0 4.0 0.00 0.00 0.00 65 1011.4
20260505020103 59 320 2.0 4.0 0.00 0.00 0.00 65 1011.3
20260505020004 59 308 2.0 4.0 0.00 0.00 0.00 65 1011.4
20260505015904 59 300 2.0 4.0 0.00 0.00 0.00 64 1011.4
20260505015804 59 296 1.0 4.0 0.00 0.00 0.00 64 1011.5
20260505015707 59 286 1.0 4.0 0.00 0.00 0.00 65 1011.5
20260505015503 59 264 1.0 3.0 0.00 0.00 0.00 66 1011.6
20260505015304 59 270 1.0 2.0 0.00 0.00 0.00 67 1011.6
20260505015204 59 271 1.0 2.0 0.00 0.00 0.00 68 1011.6
20260505015103 59 277 1.0 2.0 0.00 0.00 0.00 68 1011.5
20260505015007 59 280 1.0 2.0 0.00 0.00 0.00 68 1011.5
20260505014903 59 286 1.0 2.0 0.00 0.00 0.00 68 1011.5
20260505014804 59 298 1.0 2.0 0.00 0.00 0.00 68 1011.6
20260505014704 59 308 1.0 2.0 0.00 0.00 0.00 68 1011.6
20260505014603 59 316 1.0 2.0 0.00 0.00 0.00 67 1011.7
20260505014504 59 327 1.0 2.0 0.00 0.00 0.00 68 1011.6
20260505014403 59 337 1.0 2.0 0.00 0.00 0.00 68 1011.6
20260505014204 59 349 1.0 3.0 0.00 0.00 0.00 67 1011.6
20260505014103 59 350 1.0 3.0 0.00 0.00 0.00 67 1011.6
20260505014003 59 349 1.0 3.0 0.00 0.00 0.00 67 1011.6
20260505013803 59 344 1.0 3.0 0.00 0.00 0.00 66 1011.7
20260505013704 59 343 1.0 3.0 0.00 0.00 0.00 66 1011.7
20260505013606 59 340 1.0 3.0 0.00 0.00 0.00 66 1011.8
20260505013504 59 338 1.0 3.0 0.00 0.00 0.00 65 1011.6
20260505013404 60 335 1.0 3.0 0.00 0.00 0.00 66 1011.6
20260505013304 60 331 1.0 3.0 0.00 0.00 0.00 66 1011.6
20260505013203 60 325 1.0 3.0 0.00 0.00 0.00 66 1011.6
20260505013105 60 321 1.0 3.0 0.00 0.00 0.00 65 1011.6
20260505013003 60 317 1.0 3.0 0.00 0.00 0.00 65 1011.7
20260505012907 60 310 0.0 2.0 0.00 0.00 0.00 64 1011.7
20260505012703 60 309 0.0 1.0 0.00 0.00 0.00 64 1011.7
20260505012603 60 309 0.0 1.0 0.00 0.00 0.00 64 1011.7
20260505012504 60 309 0.0 1.0 0.00 0.00 0.00 64 1011.7
20260505012403 60 309 0.0 1.0 0.00 0.00 0.00 65 1011.8
20260505012304 60 309 0.0 1.0 0.00 0.00 0.00 65 1011.7
20260505012104 60 309 0.0 1.0 0.00 0.00 0.00 65 1011.8
20260505012004 60 309 0.0 1.0 0.00 0.00 0.00 65 1011.8
20260505011903 60 309 0.0 2.0 0.00 0.00 0.00 65 1011.9
20260505011603 60 309 1.0 2.0 0.00 0.00 0.00 65 1011.9
20260505011507 60 309 1.0 2.0 0.00 0.00 0.00 65 1011.8
20260505011404 60 309 1.0 2.0 0.00 0.00 0.00 66 1011.8
20260505011304 60 309 1.0 2.0 0.00 0.00 0.00 66 1011.8
20260505011203 60 309 1.0 2.0 0.00 0.00 0.00 66 1011.9
20260505011103 60 309 1.0 2.0 0.00 0.00 0.00 66 1012.0
20260505011004 60 309 1.0 2.0 0.00 0.00 0.00 66 1011.9
20260505010604 60 304 1.0 3.0 0.00 0.00 0.00 66 1012.0
20260505010504 60 302 1.0 3.0 0.00 0.00 0.00 67 1012.0
20260505010403 60 300 1.0 3.0 0.00 0.00 0.00 67 1012.1
20260505010004 60 284 1.0 3.0 0.00 0.00 0.00 67 1012.1
20260505005904 60 277 1.0 3.0 0.00 0.00 0.00 67 1012.2
20260505005804 60 270 1.0 2.0 0.00 0.00 0.00 67 1012.2
20260505005604 60 255 0.0 2.0 0.00 0.00 0.00 67 1012.2
20260505005504 60 248 1.0 2.0 0.00 0.00 0.00 67 1012.2
20260505005406 60 242 1.0 2.0 0.00 0.00 0.00 67 1012.2
20260505005304 60 234 1.0 3.0 0.00 0.00 0.00 67 1012.3
20260505005204 60 236 1.0 3.0 0.00 0.00 0.00 67 1012.4
20260505005104 60 236 1.0 3.0 0.00 0.00 0.00 67 1012.3
20260505005004 59 236 1.0 3.0 0.00 0.00 0.00 67 1012.4
20260505004803 59 235 1.0 3.0 0.00 0.00 0.00 67 1012.4
20260505004706 59 235 1.0 3.0 0.00 0.00 0.00 67 1012.5
20260505004604 59 235 1.0 3.0 0.00 0.00 0.00 67 1012.4
20260505004503 60 234 1.0 3.0 0.00 0.00 0.00 67 1012.5
20260505004403 60 235 1.0 3.0 0.00 0.00 0.00 67 1012.5
20260505004204 60 235 1.0 3.0 0.00 0.00 0.00 67 1012.5
20260505004103 60 235 1.0 3.0 0.00 0.00 0.00 67 1012.5
20260505004006 60 235 1.0 3.0 0.00 0.00 0.00 67 1012.6
20260505003903 60 235 1.0 2.0 0.00 0.00 0.00 67 1012.5
20260505003704 60 235 1.0 2.0 0.00 0.00 0.00 67 1012.6
20260505003603 60 235 1.0 2.0 0.00 0.00 0.00 67 1012.6
20260505003504 60 235 1.0 3.0 0.00 0.00 0.00 67 1012.6
20260505003403 60 235 1.0 3.0 0.00 0.00 0.00 67 1012.7
20260505003204 60 235 1.0 3.0 0.00 0.00 0.00 67 1012.6
20260505003104 60 237 1.0 3.0 0.00 0.00 0.00 67 1012.6
20260505003005 60 238 1.0 3.0 0.00 0.00 0.00 66 1012.7
20260505002905 60 239 1.0 3.0 0.00 0.00 0.00 66 1012.7
20260505002804 60 242 1.0 3.0 0.00 0.00 0.00 66 1012.7
20260505002703 60 244 1.0 3.0 0.00 0.00 0.00 66 1012.7
20260505002504 60 254 1.0 3.0 0.00 0.00 0.00 65 1012.8
20260505002404 60 263 1.0 3.0 0.00 0.00 0.00 64 1012.7
20260505002304 60 275 1.0 2.0 0.00 0.00 0.00 65 1012.8
20260505002204 60 290 1.0 2.0 0.00 0.00 0.00 65 1012.8
20260505002004 60 292 0.0 2.0 0.00 0.00 0.00 65 1012.9
20260505001803 60 292 0.0 2.0 0.00 0.00 0.00 65 1012.8
20260505001703 60 292 0.0 2.0 0.00 0.00 0.00 65 1012.9
20260505001504 60 292 0.0 2.0 0.00 0.00 0.00 65 1012.9
20260505001404 60 291 0.0 2.0 0.00 0.00 0.00 65 1012.8
20260505001303 60 284 0.0 2.0 0.00 0.00 0.00 65 1012.8
20260505001209 60 271 0.0 2.0 0.00 0.00 0.00 65 1012.8
20260505001104 60 266 0.0 2.0 0.00 0.00 0.00 65 1012.8
20260505001004 60 260 0.0 2.0 0.00 0.00 0.00 65 1012.8
20260505000904 60 244 0.0 2.0 0.00 0.00 0.00 65 1012.6
20260505000803 60 233 0.0 4.0 0.00 0.00 0.00 65 1012.8
20260505000703 60 219 1.0 4.0 0.00 0.00 0.00 65 1012.8
20260505000604 60 211 1.0 5.0 0.00 0.00 0.00 65 1012.8
20260505000304 60 206 2.0 5.0 0.00 0.00 0.00 66 1012.9
20260505000004 60 210 3.0 5.0 0.00 0.00 0.00 66 1013.0
20260504235903 59 210 3.0 5.0 0.00 0.00 0.00 66 1013.0
20260504235810 59 212 3.0 5.0 0.00 0.00 0.00 66 1013.0
20260504235703 59 213 3.0 5.0 0.00 0.00 0.00 66 1013.0
20260504235604 60 216 3.0 5.0 0.00 0.00 0.00 66 1013.0
20260504235503 59 220 3.0 5.0 0.00 0.00 0.00 66 1013.0
20260504235403 60 224 2.0 5.0 0.00 0.00 0.00 66 1013.0
20260504235304 60 228 2.0 5.0 0.00 0.00 0.00 66 1013.1
20260504235203 60 232 2.0 5.0 0.00 0.00 0.00 66 1013.0
20260504235107 60 240 2.0 5.0 0.00 0.00 0.00 65 1013.1
20260504235003 60 248 1.0 5.0 0.00 0.00 0.00 65 1013.2
20260504234903 60 259 1.0 3.0 0.00 0.00 0.00 65 1013.2
20260504234803 60 270 1.0 3.0 0.00 0.00 0.00 64 1013.0
20260504234704 60 285 1.0 3.0 0.00 0.00 0.00 64 1013.1
20260504234604 61 297 1.0 2.0 0.00 0.00 0.00 63 1013.0
20260504234503 61 297 1.0 2.0 0.00 0.00 0.00 63 1013.1
20260504234407 61 298 0.0 2.0 0.00 0.00 0.00 63 1013.1
20260504234304 61 300 0.0 2.0 0.00 0.00 0.00 63 1013.1
20260504234204 61 301 0.0 2.0 0.00 0.00 0.00 64 1013.1
20260504234104 61 309 0.0 2.0 0.00 0.00 0.00 64 1013.2
20260504234004 61 313 0.0 2.0 0.00 0.00 0.00 63 1013.1
20260504233803 61 302 0.0 2.0 0.00 0.00 0.00 63 1013.1
20260504233603 60 257 1.0 3.0 0.00 0.00 0.00 63 1013.1
20260504233505 60 250 1.0 3.0 0.00 0.00 0.00 63 1013.2
20260504233416 60 247 1.0 3.0 0.00 0.00 0.00 63 1013.2
20260504233303 60 243 1.0 3.0 0.00 0.00 0.00 63 1013.2
20260504233204 60 241 1.0 3.0 0.00 0.00 0.00 64 1013.2
20260504233103 60 233 1.0 3.0 0.00 0.00 0.00 63 1013.3
20260504233004 60 228 1.0 4.0 0.00 0.00 0.00 64 1013.3
20260504232903 60 227 1.0 4.0 0.00 0.00 0.00 64 1013.3
20260504232804 60 224 2.0 4.0 0.00 0.00 0.00 64 1013.3
20260504232603 60 221 2.0 5.0 0.00 0.00 0.00 65 1013.3
20260504232404 60 221 3.0 5.0 0.00 0.00 0.00 66 1013.5
20260504232304 60 221 3.0 5.0 0.00 0.00 0.00 66 1013.5
20260504232205 60 221 3.0 5.0 0.00 0.00 0.00 66 1013.5
20260504232104 60 221 3.0 5.0 0.00 0.00 0.00 66 1013.5
20260504232008 60 221 3.0 5.0 0.00 0.00 0.00 66 1013.5
20260504231904 60 222 4.0 5.0 0.00 0.00 0.00 66 1013.5
20260504231803 60 222 3.0 5.0 0.00 0.00 0.00 66 1013.5
20260504231703 60 222 3.0 5.0 0.00 0.00 0.00 65 1013.5
20260504231604 60 222 3.0 5.0 0.00 0.00 0.00 65 1013.6
20260504231503 60 222 3.0 5.0 0.00 0.00 0.00 65 1013.6
20260504231308 60 221 2.0 5.0 0.00 0.00 0.00 65 1013.6
20260504231203 60 220 2.0 5.0 0.00 0.00 0.00 65 1013.6
20260504231103 60 218 2.0 4.0 0.00 0.00 0.00 65 1013.7
20260504231004 60 217 2.0 4.0 0.00 0.00 0.00 65 1013.6
20260504230903 60 215 2.0 4.0 0.00 0.00 0.00 65 1013.6
20260504230805 60 214 2.0 4.0 0.00 0.00 0.00 65 1013.6
20260504230703 60 214 2.0 4.0 0.00 0.00 0.00 64 1013.7
20260504230608 60 214 2.0 4.0 0.00 0.00 0.00 64 1013.7
20260504230503 60 214 2.0 4.0 0.00 0.00 0.00 65 1013.7
20260504230403 60 215 3.0 4.0 0.00 0.00 0.00 64 1013.7
20260504230203 60 217 3.0 4.0 0.00 0.00 0.00 65 1013.7
20260504230104 60 218 3.0 4.0 0.00 0.00 0.00 65 1013.7
20260504225909 60 221 2.0 4.0 0.00 0.00 0.00 65 1013.7
20260504225804 60 222 2.0 4.0 0.00 0.00 0.00 66 1013.8
20260504225703 60 222 2.0 3.0 0.00 0.00 0.00 66 1013.6
20260504225604 60 223 2.0 3.0 0.00 0.00 0.00 65 1013.6
20260504225403 60 227 2.0 3.0 0.00 0.00 0.00 65 1013.6
20260504225304 60 230 2.0 3.0 0.00 0.00 0.00 65 1013.7
20260504225103 60 236 1.0 3.0 0.00 0.00 0.00 65 1013.6
20260504225004 60 240 1.0 3.0 0.00 0.00 0.00 65 1013.6
20260504224904 60 243 1.0 3.0 0.00 0.00 0.00 64 1013.6
20260504224603 61 272 1.0 2.0 0.00 0.00 0.00 64 1013.6
20260504224506 61 279 1.0 2.0 0.00 0.00 0.00 64 1013.7
20260504224404 61 292 0.0 2.0 0.00 0.00 0.00 64 1013.6
20260504224304 61 301 0.0 2.0 0.00 0.00 0.00 64 1013.7
20260504224203 61 307 0.0 1.0 0.00 0.00 0.00 64 1013.7
20260504224103 61 307 0.0 1.0 0.00 0.00 0.00 64 1013.6
20260504224003 61 307 0.0 1.0 0.00 0.00 0.00 64 1013.6
20260504223904 61 307 0.0 1.0 0.00 0.00 0.00 64 1013.6
20260504223806 61 307 0.0 1.0 0.00 0.00 0.00 64 1013.7
20260504223704 61 307 0.0 1.0 0.00 0.00 0.00 64 1013.7
20260504223604 61 307 0.0 1.0 0.00 0.00 0.00 63 1013.8
20260504223503 61 307 0.0 1.0 0.00 0.00 0.00 63 1013.8
20260504223404 62 307 0.0 1.0 0.00 0.00 0.00 63 1013.9
20260504223304 62 307 0.0 1.0 0.00 0.00 0.00 63 1013.8
20260504223203 62 307 0.0 1.0 0.00 0.00 0.00 63 1013.9
20260504223106 62 307 0.0 2.0 0.00 0.00 0.00 63 1013.7
20260504223004 62 307 0.0 2.0 0.00 0.00 0.00 63 1013.8
20260504222904 62 307 1.0 2.0 0.00 0.00 0.00 63 1013.9
20260504222804 62 307 1.0 2.0 0.00 0.00 0.00 63 1013.9
20260504222604 61 307 1.0 2.0 0.00 0.00 0.00 64 1013.9
20260504222504 61 307 1.0 2.0 0.00 0.00 0.00 64 1013.8
20260504222406 61 307 1.0 2.0 0.00 0.00 0.00 63 1013.9
20260504222305 61 307 1.0 2.0 0.00 0.00 0.00 64 1014.0
20260504222204 61 307 0.0 2.0 0.00 0.00 0.00 63 1014.0
20260504222004 62 307 0.0 2.0 0.00 0.00 0.00 63 1014.0
20260504221903 62 307 0.0 2.0 0.00 0.00 0.00 63 1013.9
20260504221804 62 307 0.0 2.0 0.00 0.00 0.00 63 1013.9
20260504221403 61 307 0.0 2.0 0.00 0.00 0.00 63 1014.0
20260504221303 61 307 0.0 2.0 0.00 0.00 0.00 63 1014.0
20260504221204 61 307 0.0 2.0 0.00 0.00 0.00 63 1014.0
20260504221103 61 306 0.0 2.0 0.00 0.00 0.00 63 1014.0
20260504221007 61 304 0.0 2.0 0.00 0.00 0.00 63 1014.0
20260504220904 61 300 1.0 3.0 0.00 0.00 0.00 63 1014.0
20260504220803 61 296 1.0 3.0 0.00 0.00 0.00 63 1014.0
20260504220703 61 295 1.0 3.0 0.00 0.00 0.00 63 1014.0
20260504220604 61 299 1.0 3.0 0.00 0.00 0.00 63 1014.1
20260504220504 61 294 1.0 3.0 0.00 0.00 0.00 63 1014.0
20260504220403 61 293 1.0 3.0 0.00 0.00 0.00 63 1014.0
20260504220204 61 281 1.0 3.0 0.00 0.00 0.00 63 1014.1
20260504220012 62 274 1.0 3.0 0.00 0.00 0.00 63 1014.2
20260504215903 62 270 1.0 3.0 0.00 0.00 0.00 63 1014.0
20260504215803 62 267 1.0 3.0 0.00 0.00 0.00 63 1014.1
20260504215704 62 259 1.0 3.0 0.00 0.00 0.00 63 1014.1
20260504215604 62 244 1.0 3.0 0.00 0.00 0.00 62 1014.2
20260504215503 62 235 0.0 3.0 0.00 0.00 0.00 62 1014.2
20260504215403 62 231 0.0 3.0 0.00 0.00 0.00 62 1014.2
20260504215309 62 228 0.0 3.0 0.00 0.00 0.00 62 1014.1
20260504215203 62 231 0.0 3.0 0.00 0.00 0.00 62 1014.2
20260504215004 62 236 1.0 4.0 0.00 0.00 0.00 62 1014.1
20260504214903 62 233 1.0 4.0 0.00 0.00 0.00 62 1014.2
20260504214803 62 232 1.0 4.0 0.00 0.00 0.00 63 1014.1
20260504214608 62 229 1.0 4.0 0.00 0.00 0.00 62 1014.2
20260504214504 62 226 2.0 4.0 0.00 0.00 0.00 62 1014.1
20260504214403 62 222 2.0 5.0 0.00 0.00 0.00 62 1014.1
20260504214304 62 218 2.0 5.0 0.00 0.00 0.00 62 1014.1
20260504214203 62 215 3.0 5.0 0.00 0.00 0.00 62 1014.2
20260504214104 62 212 3.0 6.0 0.00 0.00 0.00 61 1014.1
20260504214004 62 208 3.0 6.0 0.00 0.00 0.00 61 1014.2
20260504213908 62 206 3.0 7.0 0.00 0.00 0.00 61 1014.1
20260504213803 62 204 4.0 7.0 0.00 0.00 0.00 61 1014.2
20260504213604 62 203 4.0 7.0 0.00 0.00 0.00 61 1014.2
20260504213303 62 201 5.0 8.0 0.00 0.00 0.00 62 1014.2
20260504213103 61 201 5.0 8.0 0.00 0.00 0.00 63 1014.3
20260504212904 61 204 4.0 8.0 0.00 0.00 0.00 63 1014.3
20260504212804 61 207 4.0 8.0 0.00 0.00 0.00 63 1014.2
20260504212604 61 211 3.0 8.0 0.00 0.00 0.00 63 1014.3
20260504212509 62 215 3.0 7.0 0.00 0.00 0.00 63 1014.4
20260504212404 62 220 2.0 6.0 0.00 0.00 0.00 63 1014.4
20260504212304 62 228 2.0 5.0 0.00 0.00 0.00 63 1014.4
20260504212104 62 239 1.0 4.0 0.00 0.00 0.00 63 1014.4
20260504211904 62 240 1.0 4.0 0.00 0.00 0.00 62 1014.4
20260504211704 62 247 1.0 3.0 0.00 0.00 0.00 62 1014.3
20260504211604 62 251 1.0 3.0 0.00 0.00 0.00 62 1014.4
20260504211504 62 253 1.0 3.0 0.00 0.00 0.00 62 1014.3
20260504211403 62 254 1.0 3.0 0.00 0.00 0.00 62 1014.4
20260504211204 62 257 1.0 3.0 0.00 0.00 0.00 61 1014.4
20260504211108 62 261 1.0 3.0 0.00 0.00 0.00 62 1014.3
20260504211004 62 267 1.0 3.0 0.00 0.00 0.00 62 1014.3
20260504210904 62 273 0.0 3.0 0.00 0.00 0.00 62 1014.3
20260504210804 62 283 0.0 2.0 0.00 0.00 0.00 62 1014.3
20260504210604 62 283 0.0 1.0 0.00 0.00 0.00 62 1014.3
20260504210503 62 284 0.0 3.0 0.00 0.00 0.00 62 1014.2
20260504210409 62 286 0.0 3.0 0.00 0.00 0.00 62 1014.3
20260504210304 63 283 0.0 3.0 0.00 0.00 0.00 62 1014.2
20260504210203 63 275 1.0 3.0 0.00 0.00 0.00 62 1014.3
20260504210004 62 278 1.0 3.0 0.00 0.00 0.00 61 1014.3
20260504205708 62 284 1.0 4.0 0.00 0.00 0.00 62 1014.4
20260504205504 62 288 1.0 4.0 0.00 0.00 0.00 62 1014.3
20260504205404 63 291 2.0 4.0 0.00 0.00 0.00 62 1014.4
20260504205304 63 295 2.0 4.0 0.00 0.00 0.00 62 1014.4
20260504205203 63 301 2.0 4.0 0.00 0.00 0.00 62 1014.4
20260504205103 63 303 2.0 4.0 0.00 0.00 0.00 62 1014.3
20260504204803 63 308 1.0 3.0 0.00 0.00 0.00 61 1014.4
20260504204704 63 312 1.0 3.0 0.00 0.00 0.00 61 1014.4
20260504204604 63 313 1.0 3.0 0.00 0.00 0.00 61 1014.4
20260504204504 63 314 1.0 3.0 0.00 0.00 0.00 61 1014.3
20260504204308 63 312 1.0 3.0 0.00 0.00 0.00 61 1014.3
20260504204203 63 313 1.0 3.0 0.00 0.00 0.00 61 1014.3
20260504204103 63 313 1.0 3.0 0.00 0.00 0.00 61 1014.4
20260504203904 63 311 1.0 3.0 0.00 0.00 0.00 61 1014.4
20260504203803 63 312 1.0 3.0 0.00 0.00 0.00 61 1014.4
20260504203705 63 313 1.0 3.0 0.00 0.00 0.00 60 1014.3
20260504203504 63 317 1.0 3.0 0.00 0.00 0.00 61 1014.4
20260504203303 63 324 1.0 3.0 0.00 0.00 0.00 61 1014.3
20260504203203 63 329 1.0 3.0 0.00 0.00 0.00 61 1014.3
20260504203103 63 334 1.0 3.0 0.00 0.00 0.00 61 1014.3
20260504203004 63 340 1.0 3.0 0.00 0.00 0.00 60 1014.3
20260504202908 63 345 1.0 3.0 0.00 0.00 0.00 61 1014.3
20260504202803 63 344 1.0 3.0 0.00 0.00 0.00 61 1014.4
20260504202703 63 343 2.0 3.0 0.00 0.00 0.00 61 1014.4
20260504202503 63 342 2.0 4.0 0.00 0.00 0.00 61 1014.4
20260504202403 63 340 2.0 4.0 0.00 0.00 0.00 61 1014.4
20260504202305 63 337 2.0 4.0 0.00 0.00 0.00 61 1014.4
20260504202208 63 333 2.0 4.0 0.00 0.00 0.00 61 1014.3
20260504202004 62 331 2.0 4.0 0.00 0.00 0.00 61 1014.3
20260504201804 63 329 2.0 4.0 0.00 0.00 0.00 61 1014.4
20260504201704 63 329 2.0 4.0 0.00 0.00 0.00 61 1014.4
20260504201603 63 326 2.0 4.0 0.00 0.00 0.00 61 1014.4
20260504201508 63 326 2.0 3.0 0.00 0.00 0.00 60 1014.3
20260504201404 63 327 2.0 3.0 0.00 0.00 0.00 61 1014.4
20260504201303 63 331 2.0 3.0 0.00 0.00 0.00 60 1014.4
20260504201203 63 334 2.0 3.0 0.00 0.00 0.00 60 1014.4
20260504201105 63 334 2.0 3.0 0.00 0.00 0.00 61 1014.3
20260504201004 63 334 2.0 3.0 0.00 0.00 0.00 61 1014.3
20260504200904 63 332 2.0 3.0 0.00 0.00 0.00 61 1014.3
20260504200808 63 332 2.0 4.0 0.00 0.00 0.00 61 1014.4
20260504200704 63 333 2.0 4.0 0.00 0.00 0.00 60 1014.3
20260504200604 63 334 2.0 4.0 0.00 0.00 0.00 60 1014.4
20260504200504 63 332 2.0 4.0 0.00 0.00 0.00 60 1014.3
20260504200405 63 331 2.0 4.0 0.00 0.00 0.00 60 1014.3
20260504200304 63 331 2.0 4.0 0.00 0.00 0.00 60 1014.3
20260504200203 63 332 2.0 4.0 0.00 0.00 0.00 60 1014.4
20260504200107 63 332 2.0 4.0 0.00 0.00 0.00 60 1014.4
20260504200005 63 332 2.0 4.0 0.00 0.00 0.00 60 1014.4
20260504195903 63 336 1.0 4.0 0.00 0.00 0.00 60 1014.4
20260504195803 63 339 1.0 3.0 0.00 0.00 0.00 60 1014.3
20260504195703 63 339 1.0 3.0 0.00 0.00 0.00 60 1014.2
20260504195504 63 346 1.0 3.0 0.00 0.00 0.00 60 1014.3
20260504195408 63 350 1.0 3.0 0.00 0.00 0.00 60 1014.3
20260504195304 63 344 1.0 3.0 0.00 0.00 0.00 61 1014.3
20260504195204 63 340 1.0 3.0 0.00 0.00 0.00 61 1014.3
20260504195104 63 337 1.0 3.0 0.00 0.00 0.00 61 1014.3
20260504194903 63 329 2.0 4.0 0.00 0.00 0.00 60 1014.3
20260504194804 63 328 2.0 4.0 0.00 0.00 0.00 61 1014.2
20260504194708 63 327 2.0 4.0 0.00 0.00 0.00 60 1014.3
20260504194504 63 329 2.0 4.0 0.00 0.00 0.00 60 1014.1
20260504194405 63 328 2.0 4.0 0.00 0.00 0.00 60 1014.2
20260504194305 63 330 2.0 4.0 0.00 0.00 0.00 60 1014.3
20260504194103 63 333 2.0 4.0 0.00 0.00 0.00 61 1014.2
20260504193903 63 338 2.0 4.0 0.00 0.00 0.00 62 1014.2
20260504193803 63 340 1.0 3.0 0.00 0.00 0.00 61 1014.1
20260504193705 63 342 1.0 3.0 0.00 0.00 0.00 61 1014.1
20260504193603 63 340 1.0 3.0 0.00 0.00 0.00 61 1014.1
20260504193504 63 337 1.0 2.0 0.00 0.00 0.00 61 1014.2
20260504193404 63 334 1.0 2.0 0.00 0.00 0.00 61 1014.1
20260504193103 63 329 2.0 4.0 0.00 0.00 0.00 61 1014.2
20260504193004 63 326 2.0 4.0 0.00 0.00 0.00 61 1014.2
20260504192903 63 326 2.0 4.0 0.00 0.00 0.00 61 1014.1
20260504192704 63 324 2.0 4.0 0.00 0.00 0.00 61 1014.1
20260504192607 63 323 2.0 4.0 0.00 0.00 0.00 61 1014.1
20260504192506 63 322 2.0 4.0 0.00 0.00 0.00 61 1014.1
20260504192404 63 321 2.0 4.0 0.00 0.00 0.00 60 1014.1
20260504192304 63 320 2.0 4.0 0.00 0.00 0.00 60 1014.1
20260504192204 63 317 2.0 4.0 0.00 0.00 0.00 60 1014.1
20260504192103 63 315 2.0 4.0 0.00 0.00 0.00 60 1014.2
20260504192004 63 313 2.0 4.0 0.00 0.00 0.00 61 1014.1
20260504191907 63 311 2.0 4.0 0.00 0.00 0.00 61 1014.1
20260504191804 64 308 1.0 4.0 0.00 0.00 0.00 60 1014.1
20260504191704 64 307 1.0 3.0 0.00 0.00 0.00 60 1014.0
20260504191504 64 306 1.0 3.0 0.00 0.00 0.00 61 1014.1
20260504191404 64 307 1.0 3.0 0.00 0.00 0.00 61 1014.0
20260504191303 64 308 1.0 3.0 0.00 0.00 0.00 61 1014.0
20260504191104 64 308 2.0 3.0 0.00 0.00 0.00 61 1013.9
20260504191004 64 309 2.0 3.0 0.00 0.00 0.00 61 1013.9
20260504190904 64 309 2.0 3.0 0.00 0.00 0.00 61 1013.9
20260504190804 64 309 2.0 3.0 0.00 0.00 0.00 61 1013.9
20260504190704 64 309 2.0 3.0 0.00 0.00 0.00 61 1013.9
20260504190605 64 309 1.0 3.0 0.00 0.00 0.00 60 1013.9
20260504190507 64 311 1.0 3.0 0.00 0.00 0.00 60 1013.9
20260504190403 64 307 1.0 3.0 0.00 0.00 0.00 60 1014.0
20260504190204 64 303 1.0 3.0 0.00 0.00 0.00 61 1013.9
20260504190005 64 293 0.0 2.0 0.00 0.00 0.00 61 1013.9
20260504185806 64 273 1.0 2.0 0.00 0.00 0.00 61 1013.8
20260504185703 64 270 1.0 2.0 0.00 0.00 0.00 61 1013.9
20260504185603 64 268 1.0 2.0 0.00 0.00 0.00 61 1013.9
20260504185504 64 261 1.0 2.0 0.00 0.00 0.00 61 1013.9
20260504185403 64 259 1.0 2.0 0.00 0.00 0.00 61 1013.8
20260504185304 64 259 1.0 2.0 0.00 0.00 0.00 61 1014.0
20260504185204 64 258 1.0 2.0 0.00 0.00 0.00 61 1013.9
20260504185004 64 250 1.0 4.0 0.00 0.00 0.00 61 1013.9
20260504184904 64 249 1.0 4.0 0.00 0.00 0.00 61 1013.9
20260504184804 64 247 1.0 4.0 0.00 0.00 0.00 61 1013.9
20260504184704 64 245 2.0 4.0 0.00 0.00 0.00 61 1013.8
20260504184605 64 242 2.0 4.0 0.00 0.00 0.00 61 1013.8
20260504184504 64 238 2.0 4.0 0.00 0.00 0.00 61 1013.8
20260504184407 64 238 2.0 4.0 0.00 0.00 0.00 61 1013.8
20260504184304 64 237 2.0 4.0 0.00 0.00 0.00 61 1013.9
20260504184203 64 236 2.0 4.0 0.00 0.00 0.00 61 1013.8
20260504184104 64 232 2.0 4.0 0.00 0.00 0.00 61 1013.9
20260504184004 64 228 2.0 4.0 0.00 0.00 0.00 60 1013.8
20260504183903 65 224 2.0 5.0 0.00 0.00 0.00 60 1013.8
20260504183804 65 219 2.0 5.0 0.00 0.00 0.00 61 1013.7
20260504183605 65 216 2.0 5.0 0.00 0.00 0.00 60 1013.7
20260504183503 65 215 2.0 5.0 0.00 0.00 0.00 60 1013.8
20260504183403 65 214 2.0 5.0 0.00 0.00 0.00 60 1013.7
20260504183303 65 214 2.0 5.0 0.00 0.00 0.00 60 1013.8
20260504183204 65 215 3.0 5.0 0.00 0.00 0.00 60 1013.8
20260504183103 65 215 2.0 5.0 0.00 0.00 0.00 59 1013.7
20260504183009 65 216 2.0 5.0 0.00 0.00 0.00 59 1013.7
20260504182904 65 218 2.0 4.0 0.00 0.00 0.00 59 1013.7
20260504182803 65 222 2.0 4.0 0.00 0.00 0.00 59 1013.8
20260504182703 65 226 1.0 4.0 0.00 0.00 0.00 59 1013.7
20260504182604 65 229 1.0 4.0 0.00 0.00 0.00 59 1013.8
20260504182504 65 233 1.0 4.0 0.00 0.00 0.00 59 1013.7
20260504182406 65 240 1.0 4.0 0.00 0.00 0.00 59 1013.7
20260504182310 65 250 1.0 4.0 0.00 0.00 0.00 59 1013.6
20260504182207 65 264 1.0 3.0 0.00 0.00 0.00 59 1013.5
20260504182107 65 270 1.0 3.0 0.00 0.00 0.00 59 1013.6
20260504182006 65 272 1.0 3.0 0.00 0.00 0.00 59 1013.6
20260504181907 65 280 1.0 3.0 0.00 0.00 0.00 58 1013.5
20260504181807 65 293 1.0 3.0 0.00 0.00 0.00 57 1013.6
20260504181706 66 304 1.0 3.0 0.00 0.00 0.00 58 1013.6
20260504181609 66 317 1.0 3.0 0.00 0.00 0.00 58 1013.6
20260504181507 66 325 1.0 3.0 0.00 0.00 0.00 57 1013.6
20260504181407 66 335 1.0 3.0 0.00 0.00 0.00 56 1013.5
20260504181306 66 344 1.0 3.0 0.00 0.00 0.00 55 1013.5
20260504181207 66 348 1.0 3.0 0.00 0.00 0.00 55 1013.5
20260504181106 66 350 1.0 3.0 0.00 0.00 0.00 55 1013.5
20260504180909 66 349 1.0 3.0 0.00 0.00 0.00 55 1013.5
20260504180706 66 350 1.0 3.0 0.00 0.00 0.00 55 1013.4
20260504180606 66 347 1.0 3.0 0.00 0.00 0.00 55 1013.4
20260504180506 66 345 1.0 3.0 0.00 0.00 0.00 54 1013.4
20260504180407 66 345 1.0 3.0 0.00 0.00 0.00 54 1013.5
20260504180307 66 345 1.0 3.0 0.00 0.00 0.00 54 1013.5
20260504180210 66 344 1.0 3.0 0.00 0.00 0.00 55 1013.5
20260504180007 66 344 1.0 2.0 0.00 0.00 0.00 55 1013.4
20260504175907 66 345 1.0 2.0 0.00 0.00 0.00 55 1013.5
20260504175606 66 345 1.0 3.0 0.00 0.00 0.00 56 1013.5
20260504175511 66 345 1.0 3.0 0.00 0.00 0.00 56 1013.5
20260504175407 66 344 1.0 3.0 0.00 0.00 0.00 56 1013.5
20260504175307 66 345 1.0 3.0 0.00 0.00 0.00 56 1013.5
20260504175106 66 347 2.0 4.0 0.00 0.00 0.00 55 1013.5
20260504175007 66 348 2.0 4.0 0.00 0.00 0.00 55 1013.5
20260504174906 66 347 2.0 4.0 0.00 0.00 0.00 54 1013.5
20260504174809 66 345 2.0 4.0 0.00 0.00 0.00 53 1013.5
20260504174507 66 339 2.0 4.0 0.00 0.00 0.00 54 1013.6
20260504174407 66 338 2.0 4.0 0.00 0.00 0.00 54 1013.5
20260504174308 66 336 2.0 4.0 0.00 0.00 0.00 54 1013.4
20260504174109 66 329 2.0 4.0 0.00 0.00 0.00 55 1013.4
20260504174007 66 327 2.0 4.0 0.00 0.00 0.00 54 1013.4
20260504173907 66 327 2.0 4.0 0.00 0.00 0.00 55 1013.4
20260504173806 66 327 2.0 4.0 0.00 0.00 0.00 55 1013.5
20260504173706 66 329 2.0 4.0 0.00 0.00 0.00 55 1013.4
20260504173607 66 327 2.0 4.0 0.00 0.00 0.00 56 1013.5
20260504173506 66 325 2.0 4.0 0.00 0.00 0.00 55 1013.5
20260504173206 66 329 2.0 4.0 0.00 0.00 0.00 54 1013.6
20260504173106 66 333 2.0 4.0 0.00 0.00 0.00 53 1013.5
20260504173006 66 338 2.0 4.0 0.00 0.00 0.00 53 1013.6
20260504172806 67 343 2.0 3.0 0.00 0.00 0.00 53 1013.5
20260504172710 67 345 2.0 3.0 0.00 0.00 0.00 53 1013.4
20260504172607 66 348 2.0 3.0 0.00 0.00 0.00 53 1013.4
20260504172507 67 352 2.0 3.0 0.00 0.00 0.00 53 1013.4
20260504172407 67 351 2.0 3.0 0.00 0.00 0.00 53 1013.4
20260504172307 67 355 2.0 3.0 0.00 0.00 0.00 53 1013.5
20260504172106 67 357 2.0 3.0 0.00 0.00 0.00 52 1013.3
20260504172010 67 346 2.0 3.0 0.00 0.00 0.00 52 1013.5
20260504171907 67 347 2.0 3.0 0.00 0.00 0.00 52 1013.5
20260504171806 67 354 2.0 3.0 0.00 0.00 0.00 53 1013.5
20260504171707 67 342 1.0 2.0 0.00 0.00 0.00 52 1013.5
20260504171606 67 1 0.0 1.0 0.00 0.00 0.00 52 1013.5
20260504171507 67 1 0.0 1.0 0.00 0.00 0.00 52 1013.5
20260504171406 67 0 0.0 0.0 0.00 0.00 0.00 52 1013.5
20260504050704 58 345 1.0 3.0 0.00 0.00 0.00 70 1015.5
20260504050603 58 350 1.0 2.0 0.00 0.00 0.00 70 1015.6
20260504050504 57 342 1.0 2.0 0.00 0.00 0.00 70 1015.6
20260504050403 57 334 1.0 2.0 0.00 0.00 0.00 71 1015.6
20260504050303 57 333 1.0 2.0 0.00 0.00 0.00 71 1015.5
20260504050211 57 334 1.0 2.0 0.00 0.00 0.00 71 1015.6
20260504050104 57 325 1.0 3.0 0.00 0.00 0.00 71 1015.6
20260504050004 57 318 1.0 4.0 0.00 0.00 0.00 71 1015.6
20260504045903 57 312 1.0 4.0 0.00 0.00 0.00 71 1015.7
20260504045803 57 314 1.0 4.0 0.00 0.00 0.00 71 1015.7
20260504045704 57 305 1.0 4.0 0.00 0.00 0.00 71 1015.6
20260504045504 57 295 2.0 4.0 0.00 0.00 0.00 71 1015.6
20260504045304 57 293 2.0 4.0 0.00 0.00 0.00 71 1015.6
20260504045212 57 291 2.0 4.0 0.00 0.00 0.00 71 1015.7
20260504045104 57 291 2.0 4.0 0.00 0.00 0.00 71 1015.7
20260504045004 57 289 2.0 4.0 0.00 0.00 0.00 71 1015.6
20260504044904 57 289 2.0 4.0 0.00 0.00 0.00 70 1015.7
20260504044803 58 287 2.0 4.0 0.00 0.00 0.00 70 1015.6
20260504044704 58 294 2.0 4.0 0.00 0.00 0.00 70 1015.5
20260504044604 58 299 2.0 4.0 0.00 0.00 0.00 70 1015.5
20260504044505 58 305 1.0 3.0 0.00 0.00 0.00 70 1015.6
20260504044404 58 309 1.0 3.0 0.00 0.00 0.00 70 1015.5
20260504044303 58 312 1.0 3.0 0.00 0.00 0.00 70 1015.4
20260504044213 58 313 1.0 3.0 0.00 0.00 0.00 70 1015.5
20260504044103 58 315 1.0 2.0 0.00 0.00 0.00 70 1015.4
20260504044005 58 318 1.0 2.0 0.00 0.00 0.00 70 1015.5
20260504043904 58 320 1.0 2.0 0.00 0.00 0.00 70 1015.4
20260504043805 58 323 1.0 2.0 0.00 0.00 0.00 70 1015.4
20260504043703 58 326 1.0 2.0 0.00 0.00 0.00 70 1015.4
20260504043603 58 329 1.0 2.0 0.00 0.00 0.00 70 1015.4
20260504043304 57 334 1.0 4.0 0.00 0.00 0.00 70 1015.3
20260504043212 57 334 1.0 4.0 0.00 0.00 0.00 71 1015.3
20260504043103 57 333 1.0 4.0 0.00 0.00 0.00 71 1015.4
20260504043003 57 333 1.0 4.0 0.00 0.00 0.00 71 1015.3
20260504042903 57 332 1.0 5.0 0.00 0.00 0.00 71 1015.3
20260504042804 57 335 1.0 5.0 0.00 0.00 0.00 71 1015.2
20260504042703 57 333 2.0 6.0 0.00 0.00 0.00 71 1015.3
20260504042504 57 330 2.0 6.0 0.00 0.00 0.00 70 1015.3
20260504042403 57 329 2.0 6.0 0.00 0.00 0.00 71 1015.3
20260504042304 57 329 3.0 6.0 0.00 0.00 0.00 71 1015.2
20260504042212 57 328 3.0 6.0 0.00 0.00 0.00 71 1015.3
20260504042103 57 327 3.0 6.0 0.00 0.00 0.00 71 1015.2
20260504042004 57 326 3.0 6.0 0.00 0.00 0.00 71 1015.2
20260504041903 57 325 3.0 6.0 0.00 0.00 0.00 71 1015.2
20260504041804 57 322 3.0 6.0 0.00 0.00 0.00 71 1015.3
20260504041703 57 321 2.0 5.0 0.00 0.00 0.00 71 1015.2
20260504041603 57 320 2.0 5.0 0.00 0.00 0.00 71 1015.2
20260504041504 57 319 2.0 4.0 0.00 0.00 0.00 71 1015.2
20260504041212 57 323 2.0 4.0 0.00 0.00 0.00 71 1015.2
20260504041104 57 324 2.0 4.0 0.00 0.00 0.00 71 1015.2
20260504041003 57 324 2.0 4.0 0.00 0.00 0.00 71 1015.3
20260504040804 57 326 2.0 6.0 0.00 0.00 0.00 71 1015.3
20260504040703 57 325 3.0 6.0 0.00 0.00 0.00 71 1015.2
20260504040603 57 325 3.0 6.0 0.00 0.00 0.00 71 1015.2
20260504040505 57 325 3.0 6.0 0.00 0.00 0.00 71 1015.3
20260504040303 57 325 3.0 6.0 0.00 0.00 0.00 71 1015.1
20260504040214 57 323 3.0 6.0 0.00 0.00 0.00 71 1015.2
20260504040103 57 322 4.0 6.0 0.00 0.00 0.00 71 1015.1
20260504035904 57 321 4.0 6.0 0.00 0.00 0.00 70 1015.1
20260504035803 57 320 3.0 6.0 0.00 0.00 0.00 70 1015.1
20260504035703 57 320 3.0 6.0 0.00 0.00 0.00 70 1015.2
20260504035604 57 320 3.0 6.0 0.00 0.00 0.00 70 1015.3
20260504035505 57 319 3.0 6.0 0.00 0.00 0.00 70 1015.2
20260504035404 57 319 3.0 6.0 0.00 0.00 0.00 70 1015.2
20260504035304 57 318 3.0 6.0 0.00 0.00 0.00 70 1015.2
20260504035213 57 317 2.0 6.0 0.00 0.00 0.00 70 1015.2
20260504035104 57 314 2.0 5.0 0.00 0.00 0.00 70 1015.1
20260504034904 58 305 2.0 4.0 0.00 0.00 0.00 70 1015.1
20260504034803 58 295 2.0 4.0 0.00 0.00 0.00 70 1015.1
20260504034703 58 285 2.0 4.0 0.00 0.00 0.00 70 1015.1
20260504034603 58 279 2.0 4.0 0.00 0.00 0.00 70 1015.2
20260504034505 58 275 2.0 4.0 0.00 0.00 0.00 70 1015.1
20260504034304 58 272 2.0 4.0 0.00 0.00 0.00 70 1015.2
20260504034214 57 274 2.0 4.0 0.00 0.00 0.00 71 1015.2
20260504034104 57 278 2.0 4.0 0.00 0.00 0.00 70 1015.1
20260504034003 57 281 2.0 4.0 0.00 0.00 0.00 70 1015.1
20260504033904 58 289 2.0 4.0 0.00 0.00 0.00 70 1015.1
20260504033803 58 297 2.0 4.0 0.00 0.00 0.00 70 1015.2
20260504033704 58 303 2.0 4.0 0.00 0.00 0.00 70 1015.2
20260504033603 58 306 2.0 4.0 0.00 0.00 0.00 70 1015.2
20260504033505 58 312 2.0 4.0 0.00 0.00 0.00 70 1015.2
20260504033403 58 317 2.0 4.0 0.00 0.00 0.00 70 1015.1
20260504033214 58 323 2.0 4.0 0.00 0.00 0.00 70 1015.1
20260504032903 58 329 2.0 4.0 0.00 0.00 0.00 70 1015.2
20260504032703 58 335 2.0 4.0 0.00 0.00 0.00 70 1015.2
20260504032603 58 337 2.0 4.0 0.00 0.00 0.00 70 1015.3
20260504032505 58 339 2.0 4.0 0.00 0.00 0.00 69 1015.2
20260504032304 58 342 2.0 4.0 0.00 0.00 0.00 68 1015.1
20260504032103 58 343 2.0 4.0 0.00 0.00 0.00 68 1015.2
20260504032004 58 344 1.0 4.0 0.00 0.00 0.00 68 1015.2
20260504031904 58 344 1.0 4.0 0.00 0.00 0.00 68 1015.1
20260504031803 58 343 1.0 5.0 0.00 0.00 0.00 68 1015.2
20260504031703 58 333 1.0 5.0 0.00 0.00 0.00 68 1015.2
20260504031604 58 325 1.0 5.0 0.00 0.00 0.00 68 1015.2
20260504031403 58 317 2.0 5.0 0.00 0.00 0.00 69 1015.2
20260504031304 58 317 2.0 5.0 0.00 0.00 0.00 69 1015.2
20260504031214 58 318 2.0 5.0 0.00 0.00 0.00 69 1015.2
20260504031104 58 318 3.0 5.0 0.00 0.00 0.00 69 1015.2
20260504031003 58 318 3.0 5.0 0.00 0.00 0.00 69 1015.2
20260504030903 58 318 3.0 5.0 0.00 0.00 0.00 69 1015.1
20260504030804 58 317 3.0 5.0 0.00 0.00 0.00 69 1015.2
20260504030704 58 318 3.0 5.0 0.00 0.00 0.00 69 1015.2
20260504030604 58 320 2.0 5.0 0.00 0.00 0.00 69 1015.2
20260504030403 58 323 2.0 5.0 0.00 0.00 0.00 69 1015.2
20260504030303 58 322 2.0 5.0 0.00 0.00 0.00 68 1015.2
20260504030213 58 319 2.0 5.0 0.00 0.00 0.00 68 1015.1
20260504025904 58 309 1.0 3.0 0.00 0.00 0.00 68 1015.3
20260504025803 58 306 1.0 3.0 0.00 0.00 0.00 68 1015.2
20260504025704 58 302 1.0 3.0 0.00 0.00 0.00 68 1015.3
20260504025604 58 304 1.0 3.0 0.00 0.00 0.00 68 1015.3
20260504025505 58 315 1.0 3.0 0.00 0.00 0.00 68 1015.3
20260504025404 58 327 1.0 4.0 0.00 0.00 0.00 68 1015.2
20260504025304 58 328 1.0 4.0 0.00 0.00 0.00 68 1015.2
20260504025214 58 329 1.0 4.0 0.00 0.00 0.00 68 1015.3
20260504025104 58 327 2.0 4.0 0.00 0.00 0.00 68 1015.2
20260504024904 58 331 2.0 4.0 0.00 0.00 0.00 68 1015.2
20260504024803 58 330 2.0 4.0 0.00 0.00 0.00 68 1015.2
20260504024505 58 321 2.0 4.0 0.00 0.00 0.00 68 1015.1
20260504024404 58 317 2.0 4.0 0.00 0.00 0.00 68 1015.2
20260504024303 58 317 2.0 4.0 0.00 0.00 0.00 68 1015.2
20260504024213 58 314 2.0 4.0 0.00 0.00 0.00 68 1015.2
20260504024004 59 298 1.0 3.0 0.00 0.00 0.00 68 1015.3
20260504023904 59 297 2.0 3.0 0.00 0.00 0.00 68 1015.3
20260504023804 59 295 2.0 3.0 0.00 0.00 0.00 68 1015.3
20260504023703 59 292 2.0 3.0 0.00 0.00 0.00 68 1015.3
20260504023604 59 283 1.0 3.0 0.00 0.00 0.00 68 1015.3
20260504023505 59 281 1.0 3.0 0.00 0.00 0.00 68 1015.3
20260504023404 59 286 1.0 3.0 0.00 0.00 0.00 68 1015.1
20260504023303 59 291 2.0 3.0 0.00 0.00 0.00 68 1015.3
20260504023103 59 308 2.0 4.0 0.00 0.00 0.00 68 1015.2
20260504023004 59 317 2.0 4.0 0.00 0.00 0.00 68 1015.2
20260504022904 59 320 2.0 4.0 0.00 0.00 0.00 68 1015.3
20260504022804 59 326 2.0 4.0 0.00 0.00 0.00 68 1015.2
20260504022703 59 332 2.0 4.0 0.00 0.00 0.00 67 1015.3